TimeCST,TemperatureF,Dew PointF,Humidity,Sea Level PressureIn,VisibilityMPH,Wind Direction,Wind SpeedMPH,Gust SpeedMPH,PrecipitationIn,Events,Conditions,WindDirDegrees,DateUTC
12:15 AM,28.4,24.8,86,29.86,5.0,NW,13.8,-,N/A,,Overcast,320,2013-02-27 06:15:00
12:35 AM,26.6,24.8,93,29.87,5.0,NNW,15.0,21.9,N/A,,Overcast,330,2013-02-27 06:35:00
12:55 AM,26.6,24.8,93,29.87,5.0,NW,12.7,19.6,N/A,,Overcast,320,2013-02-27 06:55:00
1:15 AM,26.6,24.8,93,29.88,5.0,NNW,13.8,23.0,N/A,,Overcast,330,2013-02-27 07:15:00
1:35 AM,26.6,23.0,86,29.87,5.0,NNW,15.0,20.7,N/A,,Overcast,330,2013-02-27 07:35:00
1:55 AM,26.6,24.8,93,29.87,5.0,NNW,17.3,-,N/A,,Overcast,330,2013-02-27 07:55:00
2:15 AM,26.6,24.8,93,29.86,4.0,NW,16.1,-,N/A,,Overcast,320,2013-02-27 08:15:00
2:35 AM,26.6,24.8,93,29.86,4.0,NNW,16.1,23.0,N/A,,Overcast,330,2013-02-27 08:35:00
2:55 AM,26.6,23.0,86,29.86,4.0,NNW,15.0,24.2,N/A,,Overcast,330,2013-02-27 08:55:00
3:15 AM,26.6,23.0,86,29.86,4.0,NNW,15.0,25.3,N/A,,Overcast,330,2013-02-27 09:15:00
3:35 AM,26.6,23.0,86,29.85,4.0,NW,17.3,-,N/A,,Overcast,320,2013-02-27 09:35:00
3:55 AM,26.6,23.0,86,29.86,4.0,NNW,16.1,24.2,N/A,,Overcast,330,2013-02-27 09:55:00
4:15 AM,26.6,23.0,86,29.86,4.0,NW,19.6,-,N/A,,Overcast,320,2013-02-27 10:15:00
4:35 AM,26.6,23.0,86,29.86,5.0,NNW,18.4,25.3,N/A,,Overcast,330,2013-02-27 10:35:00
4:55 AM,26.6,23.0,86,29.87,5.0,NNW,15.0,20.7,N/A,,Overcast,330,2013-02-27 10:55:00
5:15 AM,26.6,23.0,86,29.87,4.0,NNW,16.1,25.3,N/A,,Overcast,330,2013-02-27 11:15:00
5:35 AM,26.6,23.0,86,29.88,5.0,NNW,16.1,-,N/A,,Overcast,330,2013-02-27 11:35:00
5:55 AM,26.6,23.0,86,29.89,5.0,NNW,17.3,23.0,N/A,,Overcast,340,2013-02-27 11:55:00
6:15 AM,26.6,23.0,86,29.89,5.0,NNW,17.3,24.2,N/A,,Overcast,340,2013-02-27 12:15:00
6:35 AM,24.8,23.0,93,29.89,5.0,NNW,13.8,20.7,N/A,,Overcast,330,2013-02-27 12:35:00
6:55 AM,24.8,23.0,93,29.89,4.0,NW,15.0,23.0,N/A,,Overcast,320,2013-02-27 12:55:00
7:15 AM,24.8,21.2,86,29.90,4.0,NNW,12.7,23.0,N/A,,Overcast,330,2013-02-27 13:15:00
7:35 AM,24.8,21.2,86,29.90,4.0,NW,19.6,-,N/A,,Overcast,320,2013-02-27 13:35:00
7:55 AM,24.8,21.2,86,29.90,4.0,NW,17.3,23.0,N/A,,Mostly Cloudy,320,2013-02-27 13:55:00
8:15 AM,24.8,21.2,86,29.91,4.0,NNW,18.4,24.2,N/A,,Partly Cloudy,330,2013-02-27 14:15:00
8:35 AM,24.8,21.2,86,29.91,5.0,NNW,16.1,24.2,N/A,,Haze,330,2013-02-27 14:35:00
8:55 AM,24.8,19.4,80,29.92,6.0,NW,15.0,24.2,N/A,,Haze,320,2013-02-27 14:55:00
9:15 AM,24.8,19.4,80,29.92,7.0,NNW,15.0,23.0,N/A,,Clear,330,2013-02-27 15:15:00
9:35 AM,24.8,19.4,80,29.92,8.0,NW,17.3,25.3,N/A,,Clear,320,2013-02-27 15:35:00
9:55 AM,26.6,19.4,74,29.93,8.0,NW,16.1,23.0,N/A,,Clear,320,2013-02-27 15:55:00
10:15 AM,26.6,19.4,74,29.93,9.0,NNW,18.4,-,N/A,,Partly Cloudy,330,2013-02-27 16:15:00
10:35 AM,26.6,21.2,80,29.93,9.0,NNW,16.1,-,N/A,,Partly Cloudy,340,2013-02-27 16:35:00
10:55 AM,28.4,21.2,74,29.93,9.0,NNW,20.7,26.5,N/A,,Clear,330,2013-02-27 16:55:00
11:15 AM,28.4,21.2,74,29.94,9.0,NNW,15.0,26.5,N/A,,Clear,330,2013-02-27 17:15:00
11:35 AM,28.4,21.2,74,29.95,10.0,NNW,16.1,26.5,N/A,,Clear,330,2013-02-27 17:35:00
12:15 PM,30.2,21.2,69,29.94,9.0,NNW,26.5,32.2,N/A,,Clear,330,2013-02-27 18:15:00
12:35 PM,30.2,21.2,69,29.93,8.0,NNW,24.2,31.1,N/A,,Clear,340,2013-02-27 18:35:00
12:55 PM,30.2,21.2,69,29.94,9.0,NNW,21.9,31.1,N/A,,Clear,340,2013-02-27 18:55:00
1:15 PM,32.0,21.2,64,29.94,9.0,NNW,23.0,33.4,N/A,,Clear,330,2013-02-27 19:15:00
1:35 PM,33.8,21.2,60,29.94,10.0,NNW,18.4,28.8,N/A,,Clear,330,2013-02-27 19:35:00
1:55 PM,33.8,21.2,60,29.93,10.0,NNW,24.2,34.5,N/A,,Clear,340,2013-02-27 19:55:00
2:15 PM,35.6,23.0,60,29.94,10.0,NNW,19.6,-,N/A,,Clear,330,2013-02-27 20:15:00
2:35 PM,35.6,23.0,60,29.94,10.0,NNW,18.4,28.8,N/A,,Clear,330,2013-02-27 20:35:00
2:55 PM,35.6,23.0,60,29.94,10.0,NNW,20.7,34.5,N/A,,Clear,330,2013-02-27 20:55:00
3:15 PM,35.6,23.0,60,29.95,10.0,NNW,21.9,32.2,N/A,,Clear,330,2013-02-27 21:15:00
3:35 PM,35.6,23.0,60,29.95,10.0,NNW,20.7,34.5,N/A,,Clear,330,2013-02-27 21:35:00
3:55 PM,37.4,23.0,56,29.95,10.0,NNW,25.3,32.2,N/A,,Clear,330,2013-02-27 21:55:00
4:15 PM,35.6,24.8,65,29.96,10.0,NW,15.0,28.8,N/A,,Clear,320,2013-02-27 22:15:00
4:35 PM,35.6,23.0,60,29.96,10.0,NW,20.7,28.8,N/A,,Clear,320,2013-02-27 22:35:00
4:55 PM,35.6,23.0,60,29.97,10.0,NNW,21.9,33.4,N/A,,Clear,330,2013-02-27 22:55:00
5:15 PM,35.6,23.0,60,29.97,10.0,NW,17.3,28.8,N/A,,Clear,320,2013-02-27 23:15:00
5:35 PM,33.8,23.0,65,29.98,10.0,NW,18.4,25.3,N/A,,Clear,320,2013-02-27 23:35:00
5:55 PM,33.8,24.8,70,29.99,10.0,NW,16.1,26.5,N/A,,Clear,320,2013-02-27 23:55:00
6:15 PM,32.0,24.8,75,30.00,10.0,NW,17.3,-,N/A,,Clear,320,2013-02-28 00:15:00
6:35 PM,32.0,23.0,69,30.01,10.0,NW,17.3,27.6,N/A,,Clear,320,2013-02-28 00:35:00
6:55 PM,32.0,24.8,75,30.02,10.0,NW,16.1,24.2,N/A,,Clear,320,2013-02-28 00:55:00
7:15 PM,32.0,23.0,69,30.02,10.0,NNW,17.3,29.9,N/A,,Clear,330,2013-02-28 01:15:00
7:35 PM,32.0,24.8,75,30.02,10.0,NNW,16.1,32.2,N/A,,Clear,330,2013-02-28 01:35:00
8:15 PM,32.0,26.6,80,30.03,10.0,NNW,24.2,35.7,N/A,,Overcast,330,2013-02-28 02:15:00
8:35 PM,32.0,26.6,80,30.03,10.0,NW,19.6,31.1,N/A,,Overcast,320,2013-02-28 02:35:00
8:55 PM,30.2,26.6,86,30.04,10.0,NNW,16.1,26.5,N/A,,Overcast,330,2013-02-28 02:55:00
9:15 PM,30.2,26.6,86,30.04,10.0,NNW,19.6,26.5,N/A,,Overcast,330,2013-02-28 03:15:00
9:35 PM,30.2,26.6,86,30.04,10.0,NNW,17.3,24.2,N/A,,Overcast,330,2013-02-28 03:35:00
9:55 PM,30.2,24.8,80,30.04,10.0,NNW,16.1,29.9,N/A,,Overcast,330,2013-02-28 03:55:00
10:35 PM,30.2,24.8,80,30.05,10.0,NNW,19.6,27.6,N/A,,Overcast,340,2013-02-28 04:35:00
10:55 PM,28.4,24.8,86,30.05,10.0,North,19.6,28.8,N/A,,Overcast,350,2013-02-28 04:55:00
11:15 PM,28.4,23.0,80,30.05,10.0,NNW,27.6,34.5,N/A,,Overcast,330,2013-02-28 05:15:00
11:35 PM,28.4,23.0,80,30.05,10.0,NNW,24.2,36.8,N/A,,Overcast,340,2013-02-28 05:35:00
11:55 PM,26.6,23.0,86,30.06,10.0,NNW,19.6,36.8,N/A,,Overcast,330,2013-02-28 05:55:00